TimeEST,TemperatureF,Dew PointF,Humidity,Sea Level PressureIn,VisibilityMPH,Wind Direction,Wind SpeedMPH,Gust SpeedMPH,PrecipitationIn,Events,Conditions,WindDirDegrees,DateUTC
12:00 AM,77.0,69.8,78,30.15,6.2,East,6.9,-,N/A,,Partly Cloudy,90,2013-12-22 05:00:00
1:00 AM,76,74,91,30.14,9,East,6.9,,,,,100,2013-12-22 06:00:00
1:00 AM,75.2,73.4,94,30.14,6.2,East,6.9,-,N/A,,Partly Cloudy,100,2013-12-22 06:00:00
3:00 AM,77.0,69.8,78,30.21,-9999.0,East,8.1,-,N/A,,Unknown,100,2013-12-22 08:00:00
4:00 AM,75,72,88,30.13,9,ESE,9.2,,,,Scattered Clouds,120,2013-12-22 09:00:00
4:00 AM,75.2,71.6,89,30.12,6.2,ESE,9.2,-,N/A,,Partly Cloudy,120,2013-12-22 09:00:00
5:00 AM,73.4,69.8,88,30.14,6.2,SE,5.8,-,N/A,Rain,Light Rain Showers,140,2013-12-22 10:00:00
6:00 AM,75.2,69.8,83,30.15,6.2,ESE,6.9,-,N/A,,Partly Cloudy,120,2013-12-22 11:00:00
7:00 AM,75,72,89,30.16,9,ESE,6.9,,,,Partly Cloudy,120,2013-12-22 12:00:00
7:00 AM,75.2,73.4,94,30.16,6.2,ESE,6.9,-,N/A,,Partly Cloudy,120,2013-12-22 12:00:00
8:00 AM,77.0,69.8,78,30.17,6.2,SE,6.9,-,N/A,,Partly Cloudy,130,2013-12-22 13:00:00
9:00 AM,78.8,69.8,74,30.19,6.2,SE,11.5,-,N/A,,Partly Cloudy,130,2013-12-22 14:00:00
10:00 AM,81,73,71,30.20,8,ESE,11.5,,,,Partly Cloudy,110,2013-12-22 15:00:00
10:00 AM,80.6,73.4,79,30.20,6.2,ESE,11.5,-,N/A,,Scattered Clouds,110,2013-12-22 15:00:00
11:00 AM,80.6,69.8,70,30.19,6.2,ESE,11.5,-,N/A,,Scattered Clouds,110,2013-12-22 16:00:00
12:00 PM,80.6,69.8,70,30.16,6.2,ESE,12.7,-,N/A,,Scattered Clouds,110,2013-12-22 17:00:00
1:00 PM,83,73,66,30.14,8,SE,13.8,,,,Partly Cloudy,130,2013-12-22 18:00:00
1:00 PM,82.4,73.4,74,30.13,6.2,SE,13.8,-,N/A,,Scattered Clouds,130,2013-12-22 18:00:00
2:00 PM,80.6,69.8,70,30.11,6.2,ESE,17.3,-,N/A,,Scattered Clouds,110,2013-12-22 19:00:00
3:00 PM,80.6,71.6,74,30.12,6.2,ESE,13.8,-,N/A,,Scattered Clouds,120,2013-12-22 20:00:00
4:00 PM,80.6,75.2,84,30.13,6.2,ESE,16.1,-,N/A,,Scattered Clouds,120,2013-12-22 21:00:00
5:00 PM,-9999,-9999,N/A,-9999,6.2,North,-9999.0,-,N/A,,Scattered Clouds,0,2013-12-22 22:00:00
6:00 PM,78.8,71.6,78,30.16,6.2,ESE,13.8,-,N/A,,Scattered Clouds,120,2013-12-22 23:00:00
7:00 PM,78,74,86,30.18,8,East,11.5,,,,Partly Cloudy,90,2013-12-23 00:00:00
7:00 PM,78.8,75.2,89,30.17,6.2,East,11.5,-,N/A,,Scattered Clouds,90,2013-12-23 00:00:00
8:00 PM,77.0,71.6,83,30.19,6.2,East,13.8,-,N/A,,Scattered Clouds,90,2013-12-23 01:00:00
9:00 PM,75.2,71.6,89,30.20,6.2,East,9.2,-,N/A,,Scattered Clouds,90,2013-12-23 02:00:00
10:00 PM,77,75,90,30.21,8,East,6.9,,,Rain,Light Rain Showers,100,2013-12-23 03:00:00
10:00 PM,77.0,75.2,94,30.20,6.2,East,6.9,-,N/A,,Scattered Clouds,100,2013-12-23 03:00:00
11:00 PM,75.2,71.6,89,30.19,-9999.0,ESE,5.8,-,N/A,,Clear,110,2013-12-23 04:00:00